TimeEDT,TemperatureF,Dew PointF,Humidity,Sea Level PressureIn,VisibilityMPH,Wind Direction,Wind SpeedMPH,Gust SpeedMPH,PrecipitationIn,Events,Conditions,WindDirDegrees,DateUTC
12:30 AM,42.8,42.8,100,30.12,3.0,North,16.1,19.6,0.03,,Overcast,360,2012-10-27 04:30:00
12:50 AM,42.8,42.8,100,30.11,2.5,North,17.3,21.9,0.05,,Overcast,360,2012-10-27 04:50:00
1:10 AM,42.8,42.8,100,30.10,5.0,NNE,17.3,20.7,0.00,,Overcast,20,2012-10-27 05:10:00
1:30 AM,42.8,42.8,100,30.10,10.0,North,15.0,20.7,0.00,,Overcast,10,2012-10-27 05:30:00
1:50 AM,42.8,42.8,100,30.09,4.0,North,17.3,-,0.04,,Overcast,10,2012-10-27 05:50:00
2:10 AM,42.8,42.8,100,30.08,6.0,NNE,16.1,24.2,0.00,,Overcast,20,2012-10-27 06:10:00
2:30 AM,42.8,42.8,100,30.08,10.0,North,13.8,-,0.00,,Overcast,360,2012-10-27 06:30:00
2:50 AM,42.8,42.8,100,30.08,10.0,North,15.0,-,0.00,,Overcast,360,2012-10-27 06:50:00
3:10 AM,42.8,42.8,100,30.08,10.0,North,15.0,-,0.00,,Overcast,10,2012-10-27 07:10:00
3:30 AM,42.8,42.8,100,30.08,10.0,North,16.1,-,0.00,,Overcast,10,2012-10-27 07:30:00
3:50 AM,42.8,42.8,100,30.07,10.0,North,15.0,-,0.00,,Overcast,10,2012-10-27 07:50:00
4:30 AM,42.8,42.8,100,30.06,9.0,North,15.0,21.9,0.01,,Overcast,360,2012-10-27 08:30:00
4:50 AM,42.8,42.8,100,30.05,10.0,North,16.1,-,0.01,,Overcast,360,2012-10-27 08:50:00
5:10 AM,42.8,42.8,100,30.06,10.0,North,15.0,21.9,0.00,,Overcast,350,2012-10-27 09:10:00
5:30 AM,41.0,41.0,100,30.07,9.0,North,15.0,21.9,0.00,,Overcast,350,2012-10-27 09:30:00
5:50 AM,41.0,41.0,100,30.06,7.0,North,17.3,23.0,0.00,,Overcast,350,2012-10-27 09:50:00
6:10 AM,41.0,41.0,100,30.07,7.0,North,15.0,-,0.00,,Overcast,350,2012-10-27 10:10:00
6:30 AM,39.2,39.2,100,30.07,4.0,North,17.3,21.9,0.00,,Overcast,350,2012-10-27 10:30:00
6:50 AM,39.2,39.2,100,30.08,3.0,North,16.1,-,0.00,,Overcast,350,2012-10-27 10:50:00
7:10 AM,39.2,39.2,100,30.08,4.0,North,15.0,20.7,0.00,,Overcast,350,2012-10-27 11:10:00
7:50 AM,39.2,39.2,100,30.09,4.0,North,15.0,21.9,0.00,,Overcast,350,2012-10-27 11:50:00
8:10 AM,39.2,39.2,100,30.10,5.0,NNW,15.0,20.7,0.00,,Overcast,340,2012-10-27 12:10:00
8:30 AM,39.2,39.2,100,30.11,4.0,North,17.3,-,0.00,,Overcast,350,2012-10-27 12:30:00
8:50 AM,39.2,39.2,100,30.11,3.0,NNW,19.6,24.2,0.00,,Overcast,340,2012-10-27 12:50:00
9:10 AM,39.2,39.2,100,30.11,8.0,North,16.1,-,0.00,,Mostly Cloudy,350,2012-10-27 13:10:00
9:30 AM,39.2,39.2,100,30.12,10.0,North,17.3,-,0.00,,Mostly Cloudy,350,2012-10-27 13:30:00
10:10 AM,39.2,39.2,100,30.13,5.0,North,15.0,-,0.00,,Scattered Clouds,360,2012-10-27 14:10:00
10:30 AM,41.0,39.2,93,30.13,10.0,North,16.1,-,0.00,,Mostly Cloudy,360,2012-10-27 14:30:00
10:50 AM,41.0,39.2,93,30.13,10.0,North,16.1,-,0.00,,Overcast,10,2012-10-27 14:50:00
11:30 AM,42.8,41.0,93,30.13,10.0,North,18.4,23.0,0.00,,Overcast,360,2012-10-27 15:30:00
11:50 AM,42.8,41.0,93,30.12,10.0,North,18.4,-,0.00,,Overcast,360,2012-10-27 15:50:00
12:10 PM,44.6,41.0,87,30.12,10.0,NNE,15.0,21.9,0.00,,Overcast,20,2012-10-27 16:10:00
12:30 PM,44.6,41.0,87,30.12,10.0,North,15.0,21.9,0.00,,Overcast,10,2012-10-27 16:30:00
12:50 PM,44.6,41.0,87,30.11,10.0,North,15.0,-,0.00,,Overcast,10,2012-10-27 16:50:00
1:10 PM,46.4,41.0,81,30.10,10.0,North,15.0,-,0.00,,Overcast,10,2012-10-27 17:10:00
1:30 PM,46.4,41.0,81,30.10,10.0,North,13.8,-,0.00,,Overcast,10,2012-10-27 17:30:00
1:50 PM,46.4,39.2,76,30.09,10.0,North,15.0,-,0.00,,Mostly Cloudy,10,2012-10-27 17:50:00
2:10 PM,46.4,39.2,76,30.08,10.0,NNE,11.5,-,0.00,,Overcast,20,2012-10-27 18:10:00
2:30 PM,48.2,41.0,76,30.07,10.0,NNE,16.1,21.9,0.00,,Overcast,20,2012-10-27 18:30:00
2:50 PM,48.2,39.2,71,30.07,10.0,NNE,17.3,20.7,0.00,,Overcast,20,2012-10-27 18:50:00
3:10 PM,48.2,39.2,71,30.06,10.0,NNE,16.1,-,0.00,,Overcast,30,2012-10-27 19:10:00
3:30 PM,48.2,39.2,71,30.06,10.0,North,16.1,19.6,0.00,,Overcast,10,2012-10-27 19:30:00
3:50 PM,48.2,39.2,71,30.07,10.0,NNE,11.5,-,0.00,,Overcast,30,2012-10-27 19:50:00
4:10 PM,48.2,37.4,66,30.07,10.0,NNE,15.0,-,0.00,,Overcast,30,2012-10-27 20:10:00
4:30 PM,48.2,37.4,66,30.07,10.0,North,16.1,-,0.00,,Mostly Cloudy,10,2012-10-27 20:30:00
4:50 PM,48.2,37.4,66,30.07,10.0,North,17.3,24.2,0.00,,Mostly Cloudy,10,2012-10-27 20:50:00
5:10 PM,48.2,37.4,66,30.08,10.0,NNE,13.8,18.4,0.00,,Overcast,30,2012-10-27 21:10:00
5:30 PM,46.4,35.6,66,30.07,10.0,NNE,12.7,-,0.00,,Mostly Cloudy,20,2012-10-27 21:30:00
5:50 PM,48.2,35.6,62,30.08,10.0,NNE,15.0,23.0,0.00,,Mostly Cloudy,20,2012-10-27 21:50:00
6:10 PM,46.4,35.6,66,30.08,10.0,NNE,11.5,-,0.00,,Overcast,20,2012-10-27 22:10:00
6:30 PM,46.4,37.4,71,30.09,10.0,NNE,8.1,-,0.00,,Overcast,20,2012-10-27 22:30:00
6:50 PM,46.4,37.4,71,30.09,10.0,NNE,8.1,-,0.00,,Overcast,30,2012-10-27 22:50:00
7:10 PM,46.4,37.4,71,30.09,10.0,NNE,9.2,-,0.00,,Overcast,20,2012-10-27 23:10:00
7:30 PM,44.6,35.6,71,30.10,10.0,NNE,9.2,-,0.00,,Mostly Cloudy,30,2012-10-27 23:30:00
7:50 PM,44.6,35.6,71,30.11,10.0,NNE,5.8,-,0.00,,Mostly Cloudy,20,2012-10-27 23:50:00
8:10 PM,44.6,35.6,71,30.11,10.0,NNE,6.9,-,0.00,,Overcast,20,2012-10-28 00:10:00
8:30 PM,42.8,35.6,76,30.11,10.0,North,5.8,-,0.00,,Mostly Cloudy,360,2012-10-28 00:30:00
8:50 PM,41.0,35.6,81,30.11,10.0,North,5.8,-,0.00,,Mostly Cloudy,350,2012-10-28 00:50:00
9:10 PM,39.2,35.6,87,30.11,10.0,North,4.6,-,0.00,,Mostly Cloudy,360,2012-10-28 01:10:00
9:30 PM,39.2,35.6,87,30.11,10.0,North,5.8,-,0.00,,Partly Cloudy,10,2012-10-28 01:30:00
9:50 PM,39.2,35.6,87,30.11,10.0,North,5.8,-,0.00,,Clear,10,2012-10-28 01:50:00
10:10 PM,37.4,35.6,93,30.11,10.0,North,5.8,-,0.00,,Clear,10,2012-10-28 02:10:00
10:30 PM,37.4,33.8,87,30.11,10.0,North,5.8,-,0.00,,Clear,10,2012-10-28 02:30:00
10:50 PM,37.4,33.8,87,30.11,10.0,North,6.9,-,0.00,,Mostly Cloudy,350,2012-10-28 02:50:00
11:10 PM,37.4,35.6,93,30.11,10.0,North,6.9,-,0.00,,Mostly Cloudy,10,2012-10-28 03:10:00
11:30 PM,39.2,35.6,87,30.11,10.0,NNE,9.2,-,0.00,,Partly Cloudy,20,2012-10-28 03:30:00
11:50 PM,39.2,33.8,81,30.11,10.0,North,9.2,-,0.00,,Clear,10,2012-10-28 03:50:00